Eden Prairie, MN

2:37 PM CST on February 27, 2017 (GMT -0600)
Flying Cloud

Weather History for KFCM - May, 2013

Change the Weather History Date:

Wednesday, May 8, 2013

  Actual Average Record
Temperature  
Mean Temperature 68 °F -  
Max Temperature 75 °F 65 °F 79 °F (2005)
Min Temperature 60 °F 45 °F 44 °F (1999)
Cooling Degree Days 2    
Growing Degree Days 18 (Base 50)    
Moisture  
Dew Point 51 °F    
Average Humidity 61    
Maximum Humidity 86    
Minimum Humidity 35    
Precipitation  
Precipitation 0.13 in - - ()
Sea Level Pressure  
Sea Level Pressure 29.97 in    
Wind  
Wind Speed 3 mph (North)    
Max Wind Speed 13 mph    
Max Gust Speed -    
Visibility 9 miles    
Events Rain    
Averages and records for this station are not official NWS values.
T = Trace of Precipitation, MM = Missing Value Source: NWS Daily Summary

Daily Weather History Graph

Daily Weather History Graph

Search for Another Location

Airport or City:

Trip Planner

Search our weather history database for the weather conditions in past years. The results will help you decide how hot, cold, wet, or windy it might be!

Date:

Astronomy

May. 08, 2013 Rise Set
Actual Time 5:53 AM CDT 8:27 PM CDT
Civil Twilight 5:20 AM CDT 9:01 PM CDT
Nautical Twilight 4:38 AM CDT 9:43 PM CDT
Astronomical Twilight 3:51 AM CDT 10:30 PM CDT
Moon 5:05 AM CDT (5/8) 7:24 PM CDT (5/8)
Length of Visible Light 15h 40m
Length of Day
14h 34m
Waning Crescent, 2% of the Moon is Illuminated
May 8
Waning Crescent
May 9
New
May 17
First Quarter
May 24
Full
May 31
Last Quarter

Hourly Weather History & Observations

Time (CDT) Temp. Dew Point Humidity Pressure Visibility Wind Dir Wind Speed Gust Speed Precip Events Conditions
12:53 AM 64.0 °F 46.9 °F 54% 29.96 in 10.0 mi Calm Calm - N/A   Clear
1:53 AM 63.0 °F 48.9 °F 60% 29.95 in 10.0 mi South 5.8 mph - N/A   Clear
2:53 AM 61.0 °F 50.0 °F 67% 29.96 in 10.0 mi South 3.5 mph - N/A   Partly Cloudy
3:53 AM 61.0 °F 48.9 °F 64% 29.95 in 10.0 mi WNW 3.5 mph - N/A   Clear
4:53 AM 60.1 °F 48.9 °F 67% 29.96 in 10.0 mi Calm Calm - N/A   Scattered Clouds
5:53 AM 60.1 °F 48.9 °F 67% 29.96 in 10.0 mi SSE 3.5 mph - N/A   Mostly Cloudy
6:53 AM 60.1 °F 51.1 °F 72% 29.97 in 10.0 mi Calm Calm - N/A   Overcast
7:53 AM 63.0 °F 51.1 °F 65% 29.99 in 10.0 mi East 3.5 mph - N/A   Overcast
8:53 AM 66.0 °F 51.1 °F 59% 29.99 in 10.0 mi Calm Calm - N/A   Scattered Clouds
9:53 AM 70.0 °F 48.9 °F 47% 29.99 in 10.0 mi Calm Calm - N/A   Scattered Clouds
10:53 AM 72.0 °F 48.0 °F 43% 29.99 in 10.0 mi East 3.5 mph - N/A   Partly Cloudy
11:53 AM 73.9 °F 45.0 °F 35% 29.98 in 10.0 mi SSE 3.5 mph - N/A   Clear
12:53 PM 75.9 °F 46.9 °F 36% 29.97 in 10.0 mi Calm Calm - N/A   Clear
1:53 PM 75.9 °F 46.0 °F 35% 29.95 in 10.0 mi Variable 3.5 mph - N/A   Overcast
2:53 PM 75.0 °F 48.0 °F 38% 29.95 in 10.0 mi Calm Calm - N/A   Overcast
3:53 PM 73.0 °F 48.0 °F 41% 29.94 in 10.0 mi Calm Calm - 0.00 in   Overcast
4:53 PM 72.0 °F 48.9 °F 44% 29.93 in 10.0 mi North 6.9 mph - N/A   Overcast
5:53 PM 71.1 °F 48.9 °F 45% 29.93 in 10.0 mi North 8.1 mph - N/A   Overcast
6:42 PM 62.6 °F 55.4 °F 77% 29.99 in 1.8 mi WSW 6.9 mph - 0.06 in Rain Heavy Rain
6:53 PM 61.0 °F 55.9 °F 83% 29.98 in 2.0 mi WNW 8.1 mph - 0.08 in Rain Rain
7:09 PM 60.8 °F 55.4 °F 82% 29.96 in 4.0 mi NNW 12.7 mph - 0.04 in Rain Light Rain
7:53 PM 60.1 °F 55.9 °F 86% 29.96 in 10.0 mi North 8.1 mph - 0.05 in   Overcast
8:53 PM 62.1 °F 55.0 °F 78% 29.97 in 10.0 mi Calm Calm - N/A   Overcast
9:53 PM 62.1 °F 55.0 °F 78% 30.00 in 10.0 mi NE 4.6 mph - N/A   Overcast
10:53 PM 61.0 °F 55.9 °F 83% 30.00 in 8.0 mi Calm Calm - N/A   Overcast
11:53 PM 61.0 °F 55.0 °F 81% 29.99 in 8.0 mi Calm Calm - 0.00 in   Overcast